This is the latest recevied weather packets stored in our database for station/object KJ7BRE-1. If no packets are shown the sender has not sent any weather packets the latest 10 day(s).
| Time | Temp. | Humidity | Pressure | Rain* | Wind** | Luminosity | Snow |
|---|---|---|---|---|---|---|---|
| 1788036451 | 21.11° C | 54% | 1017.6 hPa | 0 mm | - | - | - |
| 1788036150 | 20.56° C | 55% | 1017.6 hPa | 0 mm | - | - | - |
| 1788035849 | 20.56° C | 54% | 1017.6 hPa | 0 mm | - | - | - |
| 1788035547 | 20.56° C | 54% | 1017.6 hPa | 0 mm | - | - | - |
| 1788035246 | 20.56° C | 54% | 1017.6 hPa | 0 mm | - | - | - |
| 1788034945 | 19.44° C | 59% | 1017.6 hPa | 0 mm | - | - | - |
| 1788034644 | 19.44° C | 62% | 1017.6 hPa | 0 mm | - | - | - |
| 1788034342 | 18.89° C | 63% | 1017.9 hPa | 0 mm | - | - | - |
| 1788034041 | 18.89° C | 62% | 1017.9 hPa | 0 mm | - | - | - |
| 1788033740 | 18.89° C | 61% | 1017.9 hPa | 0 mm | - | - | - |
| 1788033439 | 18.89° C | 60% | 1018.3 hPa | 0 mm | - | - | - |
| 1788033138 | 18.89° C | 59% | 1017.9 hPa | 0 mm | - | - | - |
| 1788032836 | 18.89° C | 57% | 1017.9 hPa | 0 mm | - | - | - |
| 1788032535 | 19.44° C | 57% | 1017.9 hPa | 0 mm | - | - | - |
| 1788032234 | 19.44° C | 55% | 1017.9 hPa | 0 mm | - | - | - |
| 1788031933 | 19.44° C | 55% | 1017.9 hPa | 0 mm | - | - | - |
| 1788031632 | 19.44° C | 56% | 1017.9 hPa | 0 mm | - | - | - |
| 1788031330 | 19.44° C | 56% | 1017.9 hPa | 0 mm | - | - | - |
| 1788031029 | 19.44° C | 56% | 1017.9 hPa | 0 mm | - | - | - |
| 1788030728 | 20° C | 56% | 1017.9 hPa | 0 mm | - | - | - |
| 1788030426 | 19.44° C | 55% | 1017.9 hPa | 0 mm | - | - | - |
| 1788030125 | 19.44° C | 58% | 1017.9 hPa | 0 mm | - | - | - |
| 1788029824 | 18.89° C | 58% | 1017.9 hPa | 0 mm | - | - | - |
| 1788029523 | 18.89° C | 58% | 1017.9 hPa | 0 mm | - | - | - |
| 1788029222 | 19.44° C | 59% | 1017.9 hPa | 0 mm | - | - | - |
* Rain latest hour (hover to see other rain measurements)
** Current wind speed in m/s (hover to see current wind gust speed)